CW0641 Weather Reports


Display with metric or nautical units.
time (UTC)temp
F
wind
direction
speed
MPH
gust
MPH
rain 1hr
in
rain 24hr
in
rain mn
in
humidity
%
barometer
mb
20260904060446 72 250 0.0 4.0 0.00 0.00 0.00 77 1011.4
20260904055916 72 294 1.0 4.0 0.00 0.00 0.00 79 1011.5
20260904055443 72 320 1.0 6.0 0.00 0.00 0.00 81 1011.4
20260904054918 71 271 2.0 6.0 0.00 0.00 0.00 81 1011.3
20260904053919 71 315 2.0 5.0 0.00 0.00 0.00 83 1011.3
20260904053441 70 269 1.0 8.0 0.00 0.00 0.00 83 1011.3
20260904052441 70 276 1.0 4.0 0.00 0.00 0.00 86 1011.3
20260904051915 69 259 1.0 4.0 0.00 0.00 0.00 86 1011.3
20260904051436 69 302 1.0 5.0 0.00 0.00 0.00 87 1011.1
20260904050917 69 298 1.0 5.0 0.00 0.00 0.00 88 1011.1
20260904050436 69 302 1.0 6.0 0.00 0.00 0.00 88 1011.1
20260904045432 68 262 0.0 3.0 0.00 0.00 0.00 90 1011.0
20260904044915 68 270 0.0 2.0 0.00 0.00 0.00 90 1011.0
20260904044434 68 271 0.0 2.0 0.00 0.00 0.00 90 1011.0
20260904043916 68 271 0.0 2.0 0.00 0.00 0.00 91 1010.9
20260904043431 68 271 0.0 2.0 0.00 0.00 0.00 91 1011.0
20260904042916 68 281 0.0 0.0 0.00 0.00 0.00 91 1011.0
20260904042429 67 281 0.0 0.0 0.00 0.00 0.00 91 1011.0
20260904041424 66 282 0.0 1.0 0.00 0.00 0.00 90 1010.9
20260904040904 67 282 0.0 1.0 0.00 0.00 0.00 90 1010.9
20260904040420 67 282 0.0 1.0 0.00 0.00 0.00 90 1010.9
20260904035852 67 282 0.0 2.0 0.00 0.00 0.00 90 1010.8
20260904035420 67 282 0.0 3.0 0.00 0.00 0.00 91 1010.7
20260904034851 66 281 1.0 3.0 0.00 0.00 0.00 91 1010.8
20260904034421 66 271 0.0 2.0 0.00 0.00 0.00 91 1010.7
20260904033851 66 271 0.0 2.0 0.00 0.00 0.00 90 1010.6
20260904033420 66 271 0.0 2.0 0.00 0.00 0.00 91 1010.6
20260904032845 67 271 0.0 3.0 0.00 0.00 0.00 91 1010.5
20260904032415 66 271 0.0 3.0 0.00 0.00 0.00 91 1010.5
20260904031834 66 271 1.0 3.0 0.00 0.00 0.00 91 1010.4
20260904031414 66 270 1.0 3.0 0.00 0.00 0.00 91 1010.4
20260904030830 67 269 1.0 3.0 0.00 0.00 0.00 91 1010.4
20260904025826 67 282 1.0 4.0 0.00 0.00 0.00 91 1010.4
20260904025409 67 287 1.0 3.0 0.00 0.00 0.00 91 1010.4
20260904024828 66 286 1.0 3.0 0.00 0.00 0.00 91 1010.4
20260904024404 67 281 0.0 3.0 0.00 0.00 0.00 91 1010.3
20260904023405 66 279 0.0 3.0 0.00 0.00 0.00 92 1010.3
20260904022822 66 275 0.0 2.0 0.00 0.00 0.00 91 1010.3
20260904022407 66 275 0.0 3.0 0.00 0.00 0.00 92 1010.2
20260904021823 66 275 1.0 4.0 0.00 0.00 0.00 92 1010.2
20260904020821 66 294 2.0 5.0 0.00 0.00 0.00 92 1010.1
20260904020400 66 290 2.0 5.0 0.00 0.00 0.00 92 1010.1
20260904015819 66 297 2.0 5.0 0.00 0.00 0.00 92 1010.1
20260904014819 66 319 1.0 6.0 0.00 0.00 0.00 92 1010.1
20260904014401 66 349 1.0 6.0 0.00 0.00 0.00 92 1010.1
20260904013816 66 340 1.0 5.0 0.00 0.00 0.00 92 1010.2
20260904013353 66 309 1.0 5.0 0.00 0.00 0.00 92 1010.2
20260904012816 67 337 1.0 4.0 0.00 0.00 0.00 92 1010.2
20260904012355 67 267 1.0 4.0 0.00 0.00 0.00 93 1010.1
20260904011353 67 267 2.0 7.0 0.00 0.00 0.00 93 1010.1
20260904010348 67 271 2.0 9.0 0.00 0.00 0.00 93 1010.1
20260904005805 67 322 3.0 9.0 0.00 0.00 0.00 93 1010.1
20260904004345 67 276 2.0 8.0 0.00 0.00 0.00 93 1010.0
20260904003804 67 277 2.0 7.0 0.00 0.00 0.00 93 1010.0
20260904003345 67 325 2.0 5.0 0.00 0.00 0.00 93 1010.0
20260904002758 68 288 2.0 8.0 0.00 0.00 0.00 93 1010.0
20260904002342 68 317 2.0 8.0 0.00 0.00 0.00 93 1010.1
20260904001759 68 355 1.0 7.0 0.00 0.00 0.00 93 1010.1
20260904000753 68 233 1.0 4.0 0.00 0.00 0.00 93 1010.1
20260904000340 68 281 1.0 4.0 0.00 0.00 0.00 93 1010.1
20260903235754 68 283 2.0 8.0 0.00 0.00 0.00 93 1010.1
20260903235338 68 313 3.0 8.0 0.00 0.00 0.00 93 1010.1
20260903234750 68 313 2.0 8.0 0.00 0.00 0.00 93 1010.1
20260903233745 68 325 2.0 5.0 0.00 0.00 0.00 92 1010.2
20260903233334 68 323 2.0 5.0 0.00 0.00 0.00 92 1010.2
20260903232741 68 318 2.0 5.0 0.00 0.00 0.00 92 1010.2
20260903232335 68 317 2.0 6.0 0.00 0.00 0.00 92 1010.2
20260903231739 68 338 2.0 6.0 0.00 0.00 0.00 92 1010.1
20260903231327 68 319 1.0 6.0 0.00 0.00 0.00 92 1010.2
20260903230739 68 288 1.0 5.0 0.00 0.00 0.00 92 1010.2
20260903230324 69 346 1.0 5.0 0.00 0.00 0.00 92 1010.3
20260903225738 69 313 1.0 5.0 0.00 0.00 0.00 92 1010.4
20260903225325 69 331 2.0 6.0 0.00 0.00 0.00 92 1010.4
20260903224734 69 261 2.0 6.0 0.00 0.00 0.00 92 1010.4
20260903224322 69 329 1.0 7.0 0.00 0.00 0.00 92 1010.4
20260903223738 69 292 1.0 7.0 0.00 0.00 0.00 92 1010.5
20260903223322 69 313 1.0 4.0 0.00 0.00 0.00 92 1010.5
20260903222727 69 286 2.0 7.0 0.00 0.00 0.00 92 1010.4
20260903222319 69 290 2.0 7.0 0.00 0.00 0.00 92 1010.5
20260903221317 69 9 2.0 6.0 0.00 0.00 0.00 92 1010.5
20260903220726 70 323 2.0 6.0 0.00 0.00 0.00 92 1010.6
20260903220314 70 342 2.0 7.0 0.00 0.00 0.00 92 1010.6
20260903215724 70 311 3.0 9.0 0.00 0.00 0.00 92 1010.6
20260903215311 70 328 3.0 9.0 0.00 0.00 0.00 92 1010.7
20260903214313 70 280 3.0 9.0 0.00 0.00 0.00 92 1010.8
20260903213723 70 320 3.0 9.0 0.00 0.00 0.00 92 1010.8
20260903213313 70 350 2.0 8.0 0.00 0.00 0.00 91 1010.7
20260903212724 70 332 2.0 8.0 0.00 0.00 0.00 91 1010.7
20260903212309 70 334 2.0 9.0 0.00 0.00 0.00 91 1010.8
20260903211726 70 298 2.0 9.0 0.00 0.00 0.00 91 1010.7
20260903211308 70 350 2.0 7.0 0.00 0.00 0.00 91 1010.8
20260903210723 70 288 2.0 7.0 0.00 0.00 0.00 91 1010.8
20260903205723 70 340 2.0 9.0 0.00 0.00 0.00 91 1010.8
20260903205301 70 14 2.0 9.0 0.00 0.00 0.00 91 1010.9
20260903204713 70 22 2.0 5.0 0.00 0.00 0.00 91 1010.9
20260903204258 70 0 2.0 7.0 0.00 0.00 0.00 91 1010.9
20260903203713 71 343 3.0 11.0 0.00 0.00 0.00 91 1010.9
20260903203300 71 304 3.0 11.0 0.00 0.00 0.00 91 1011.0
20260903202715 71 294 3.0 9.0 0.00 0.00 0.00 90 1010.9
20260903202258 71 300 3.0 9.0 0.00 0.00 0.00 90 1010.9
20260903201715 71 306 2.0 9.0 0.00 0.00 0.00 90 1010.9
20260903201254 71 323 2.0 8.0 0.00 0.00 0.00 91 1010.9
20260903200710 71 323 2.0 8.0 0.00 0.00 0.00 90 1011.0
20260903200253 71 328 2.0 8.0 0.00 0.00 0.00 90 1011.0
20260903195710 71 296 3.0 9.0 0.00 0.00 0.00 90 1011.0
20260903195252 72 332 2.0 9.0 0.00 0.00 0.00 90 1011.0
20260903194712 72 0 2.0 8.0 0.00 0.00 0.00 90 1010.9
20260903194248 72 298 3.0 8.0 0.00 0.00 0.00 90 1011.0
20260903193708 72 248 2.0 8.0 0.00 0.00 0.00 89 1011.0
20260903193244 72 355 2.0 9.0 0.00 0.00 0.00 89 1011.0
20260903192708 72 348 3.0 9.0 0.00 0.00 0.00 89 1011.0
20260903192245 72 317 3.0 9.0 0.00 0.00 0.00 89 1010.9
20260903191707 72 289 3.0 6.0 0.00 0.00 0.00 89 1010.8
20260903191245 72 16 3.0 6.0 0.00 0.00 0.00 89 1010.9
20260903190707 72 311 2.0 6.0 0.00 0.00 0.00 89 1010.9
20260903185707 72 311 2.0 11.0 0.00 0.00 0.00 89 1011.0
20260903184657 73 268 2.0 8.0 0.00 0.00 0.00 88 1011.0
20260903183238 73 290 4.0 11.0 0.00 0.00 0.00 87 1011.0
20260903182655 73 306 3.0 11.0 0.00 0.00 0.00 87 1011.0
20260903182232 73 271 4.0 10.0 0.00 0.00 0.00 87 1011.1
20260903181232 74 296 4.0 11.0 0.00 0.00 0.00 85 1011.1
20260903180230 74 297 5.0 10.0 0.00 0.00 0.00 85 1011.0
20260903175655 74 286 4.0 10.0 0.00 0.00 0.00 84 1011.0
20260903174655 74 313 3.0 9.0 0.00 0.00 0.00 83 1010.9
20260903173655 74 321 3.0 9.0 0.00 0.00 0.00 82 1010.8
20260903173224 75 355 3.0 9.0 0.00 0.00 0.00 82 1010.8
20260903172654 75 334 3.0 9.0 0.00 0.00 0.00 81 1010.7
20260903170650 75 350 3.0 8.0 0.00 0.00 0.00 80 1010.5
20260903170218 75 355 4.0 11.0 0.00 0.00 0.00 79 1010.5
20260903165218 76 355 4.0 12.0 0.00 0.00 0.00 78 1010.3
20260903164642 76 341 5.0 12.0 0.00 0.00 0.00 78 1010.2
20260903164215 76 342 5.0 11.0 0.00 0.00 0.00 77 1010.3
20260903163648 76 294 4.0 10.0 0.00 0.00 0.00 76 1010.3
20260903163213 76 350 5.0 10.0 0.00 0.00 0.00 75 1010.2
20260903162210 76 334 6.0 14.0 0.00 0.00 0.00 75 1010.1
20260903161641 76 351 5.0 14.0 0.00 0.00 0.00 75 1010.1
20260903161211 77 288 4.0 12.0 0.00 0.00 0.00 74 1010.1
20260903160212 77 327 6.0 14.0 0.00 0.00 0.00 73 1009.9
20260903155642 78 317 6.0 11.0 0.00 0.00 0.00 72 1009.9
20260903155205 78 319 5.0 11.0 0.00 0.00 0.00 72 1009.7
20260903154641 78 333 4.0 11.0 0.00 0.00 0.00 71 1009.7
20260903154204 79 321 4.0 11.0 0.00 0.00 0.00 70 1009.6
20260903153642 79 344 4.0 12.0 0.00 0.00 0.00 69 1009.6
20260903153204 79 355 4.0 12.0 0.00 0.00 0.00 68 1009.6
20260903152642 79 279 4.0 10.0 0.00 0.00 0.00 68 1009.6
20260903152203 79 298 4.0 11.0 0.00 0.00 0.00 67 1009.6
20260903151635 80 300 4.0 11.0 0.00 0.00 0.00 67 1009.6
20260903151159 80 281 4.0 10.0 0.00 0.00 0.00 67 1009.7
20260903145631 80 302 4.0 11.0 0.00 0.00 0.00 66 1009.6
20260903145201 81 337 4.0 9.0 0.00 0.00 0.00 67 1009.7
20260903144156 81 355 4.0 11.0 0.00 0.00 0.00 66 1009.6
20260903143633 81 336 4.0 11.0 0.00 0.00 0.00 66 1009.6
20260903143157 81 355 4.0 11.0 0.00 0.00 0.00 65 1009.6
20260903142631 82 329 4.0 11.0 0.00 0.00 0.00 64 1009.6
20260903142152 82 314 4.0 10.0 0.00 0.00 0.00 64 1009.6
20260903141632 82 286 4.0 10.0 0.00 0.00 0.00 64 1009.4
20260903141148 82 325 4.0 11.0 0.00 0.00 0.00 63 1009.6
20260903140632 83 327 4.0 11.0 0.00 0.00 0.00 62 1009.5
20260903140149 83 279 4.0 11.0 0.00 0.00 0.00 62 1009.5
20260903135633 83 238 4.0 11.0 0.00 0.00 0.00 62 1009.5
20260903135142 83 303 4.0 11.0 0.00 0.00 0.00 61 1009.5
20260903134148 84 252 5.0 11.0 0.00 0.00 0.00 60 1009.5
20260903133141 84 332 5.0 12.0 0.00 0.00 0.00 60 1009.4
20260903132630 84 308 6.0 12.0 0.00 0.00 0.00 59 1009.4
20260903132141 85 250 5.0 11.0 0.00 0.00 0.00 59 1009.4
20260903131626 85 327 5.0 11.0 0.00 0.00 0.00 58 1009.4
20260903131138 85 320 5.0 13.0 0.00 0.00 0.00 58 1009.4
20260903130627 85 305 5.0 13.0 0.00 0.00 0.00 58 1009.5
20260903130138 85 30 5.0 11.0 0.00 0.00 0.00 58 1009.4
20260903125624 85 330 4.0 10.0 0.00 0.00 0.00 58 1009.4
20260903124627 86 266 4.0 11.0 0.00 0.00 0.00 58 1009.5
20260903124136 85 318 4.0 11.0 0.00 0.00 0.00 59 1009.5
20260903123630 85 304 5.0 12.0 0.00 0.00 0.00 58 1009.6
20260903123140 86 313 5.0 12.0 0.00 0.00 0.00 59 1009.6
20260903122132 86 282 5.0 11.0 0.00 0.00 0.00 58 1009.7
20260903121641 86 253 5.0 11.0 0.00 0.00 0.00 58 1009.6
20260903121134 87 269 5.0 12.0 0.00 0.00 0.00 57 1009.7
20260903120621 87 311 4.0 12.0 0.00 0.00 0.00 58 1009.7
20260903120134 87 304 4.0 12.0 0.00 0.00 0.00 58 1009.7
20260903115620 87 299 4.0 11.0 0.00 0.00 0.00 57 1010.0
20260903114620 87 335 4.0 12.0 0.00 0.00 0.00 57 1009.9
20260903114127 87 304 3.0 12.0 0.00 0.00 0.00 57 1010.0
20260903113124 87 245 4.0 11.0 0.00 0.00 0.00 57 1010.0
20260903112621 87 307 3.0 10.0 0.00 0.00 0.00 56 1010.0
20260903112126 87 287 3.0 10.0 0.00 0.00 0.00 55 1010.1
20260903111621 87 19 4.0 10.0 0.00 0.00 0.00 54 1010.0
20260903111121 87 309 4.0 12.0 0.00 0.00 0.00 54 1010.1
20260903110618 87 314 3.0 12.0 0.00 0.00 0.00 53 1010.2
20260903110122 87 346 3.0 9.0 0.00 0.00 0.00 54 1010.2
20260903105620 86 290 3.0 10.0 0.00 0.00 0.00 54 1010.3
20260903105121 87 328 4.0 10.0 0.00 0.00 0.00 54 1010.2
20260903104617 87 5 3.0 10.0 0.00 0.00 0.00 54 1010.2
20260903104118 87 0 3.0 10.0 0.00 0.00 0.00 53 1010.3
20260903103618 87 355 2.0 10.0 0.00 0.00 0.00 53 1010.3
20260903103117 86 339 3.0 9.0 0.00 0.00 0.00 53 1010.4
20260903102618 86 13 4.0 9.0 0.00 0.00 0.00 53 1010.4
20260903102118 86 272 4.0 9.0 0.00 0.00 0.00 54 1010.5
20260903101618 86 300 4.0 9.0 0.00 0.00 0.00 54 1010.5
20260903101118 86 297 3.0 8.0 0.00 0.00 0.00 55 1010.5
20260903100617 86 355 3.0 8.0 0.00 0.00 0.00 56 1010.5
20260903100117 85 15 2.0 9.0 0.00 0.00 0.00 55 1010.5
20260903095617 85 355 2.0 9.0 0.00 0.00 0.00 56 1010.6
20260903095119 85 0 2.0 9.0 0.00 0.00 0.00 57 1010.7
20260903094619 85 340 2.0 9.0 0.00 0.00 0.00 56 1010.7
20260903094116 85 322 2.0 9.0 0.00 0.00 0.00 55 1010.7
20260903093615 85 5 3.0 9.0 0.00 0.00 0.00 55 1010.8
20260903092116 85 304 3.0 9.0 0.00 0.00 0.00 55 1010.8
20260903091618 85 252 3.0 8.0 0.00 0.00 0.00 55 1010.9
20260903091116 85 355 2.0 9.0 0.00 0.00 0.00 57 1010.9
20260903090615 84 26 2.0 9.0 0.00 0.00 0.00 56 1010.8
20260903090118 83 355 2.0 8.0 0.00 0.00 0.00 58 1010.9
20260903085618 83 300 2.0 11.0 0.00 0.00 0.00 59 1011.0
20260903085118 83 325 2.0 11.0 0.00 0.00 0.00 60 1011.0
20260903084621 83 269 2.0 9.0 0.00 0.00 0.00 60 1011.1
20260903084112 83 59 2.0 8.0 0.00 0.00 0.00 59 1011.1
20260903083612 83 355 2.0 8.0 0.00 0.00 0.00 60 1011.1
20260903083113 83 333 2.0 8.0 0.00 0.00 0.00 60 1011.1
20260903082111 83 300 3.0 9.0 0.00 0.00 0.00 60 1011.3
20260903081614 83 296 2.0 9.0 0.00 0.00 0.00 60 1011.4
20260903081116 83 332 2.0 7.0 0.00 0.00 0.00 60 1011.4
20260903080612 82 355 2.0 8.0 0.00 0.00 0.00 60 1011.3
20260903075613 81 317 2.0 8.0 0.00 0.00 0.00 62 1011.5
20260903075115 80 333 2.0 8.0 0.00 0.00 0.00 62 1011.5
20260903074612 80 252 2.0 7.0 0.00 0.00 0.00 63 1011.5
20260903074114 80 267 2.0 9.0 0.00 0.00 0.00 64 1011.5
20260903073611 80 293 2.0 9.0 0.00 0.00 0.00 65 1011.5
20260903073109 80 286 2.0 7.0 0.00 0.00 0.00 65 1011.4
20260903072609 79 269 2.0 7.0 0.00 0.00 0.00 65 1011.4
20260903071607 78 342 2.0 8.0 0.00 0.00 0.00 69 1011.5
20260903065604 76 261 2.0 6.0 0.00 0.00 0.00 75 1011.5
20260903065105 76 325 2.0 9.0 0.00 0.00 0.00 76 1011.5
20260903064600 76 305 2.0 9.0 0.00 0.00 0.00 77 1011.6
20260903063559 75 350 2.0 8.0 0.00 0.00 0.00 81 1011.5
20260903063101 74 329 2.0 6.0 0.00 0.00 0.00 83 1011.5
20260903062059 73 273 1.0 5.0 0.00 0.00 0.00 84 1011.5
20260903061559 73 340 1.0 4.0 0.00 0.00 0.00 86 1011.5
20260903061053 73 332 1.0 7.0 0.00 0.00 0.00 88 1011.6